Flag for Netherlands Weather past 2 weeks in Groningen, Netherlands

Now
45 °F

Passing clouds.


Feels Like: 39 °F
Forecast: 40 / 58 °F
Wind: 10 mph from Northwest

Location: Groningen Eelde Airport


UV Index: 3 (Moderate)

Visibility: N/A


Pressure: 29.86 "Hg

Humidity: 81%

Dew point: 39 °F

Location of GroningenLocation

Historic Weather in Groningen

°F

Groningen temperature yesterday

Maximum temperature yesterday: 61 °F (at 2:25 PM)
Minimum temperature yesterday: 41 °F (at 1:25 AM)
Average temperature yesterday: 50 °F

Past Weeks' High & Low Weather Summary

 TemperatureHumidityPressure
High68 °F (Apr 7, 3:55 PM)100% (Apr 3, 2:25 AM)30.45 "Hg (Apr 3, 2:25 AM)
Low30 °F (Apr 16, 2:55 AM)39% (Apr 16, 3:25 PM)29.62 "Hg (Apr 3, 3:55 PM)
Average50 °F80%30.01 "Hg
* Reported Apr 3 2:25 AM — Apr 18 2:55 AM, Groningen, Weather by CustomWeather, © 2014

Note: Actual official high and low records may vary slightly from our data, if they occured in-between our weather recording intervals... More about our weather records

Advertising

Historic Weather Conditions — Data for Previous 24 hours

 ConditionsComfort  
Time TempWeatherWind HumidityBarometerVisibility
2:55 AM
Apr 18
45 °FPassing clouds.14 mph81%29.86 "HgN/A
2:25 AM45 °FPartly cloudy.9 mph81%29.86 "HgN/A
1:55 AM45 °FPartly cloudy.10 mph87%29.86 "HgN/A
1:25 AM45 °FPassing clouds.12 mph81%29.86 "HgN/A
12:55 AM45 °FQuite cool.9 mph87%29.89 "HgN/A
12:25 AM46 °FCool.8 mph87%29.89 "HgN/A
11:55 PM
Apr 17
48 °FClear.9 mph82%29.89 "HgN/A
11:25 PM48 °FPassing clouds.12 mph82%29.89 "HgN/A
10:55 PM48 °FMostly cloudy.10 mph94%29.89 "HgN/A
10:25 PM48 °FPassing clouds.9 mph94%29.89 "Hg6 mi
9:55 PM48 °FPartly cloudy.9 mph94%29.89 "Hg4 mi
9:25 PM48 °FLight rain. Partly sunny.12 mph87%29.89 "HgN/A
8:55 PM48 °FDrizzle. Broken clouds.16 mph94%29.89 "Hg6 mi
8:25 PM48 °FLight rain. Partly sunny.12 mph94%29.92 "Hg5 mi
7:55 PM50 °FDrizzle. Broken clouds.16 mph82%29.92 "HgN/A
6:55 PM54 °FPassing clouds.16 mph67%29.92 "HgN/A
6:25 PM54 °FClear.16 mph63%29.92 "HgN/A
5:55 PM55 °FClear.18 mph51%29.92 "HgN/A
5:25 PM57 °FPartly sunny.18 mph48%29.92 "HgN/A
4:55 PM57 °FScattered clouds.17 mph48%29.95 "HgN/A
4:25 PM59 °FPassing clouds.21 mph45%29.95 "HgN/A
3:55 PM59 °FClear.21 mph42%29.95 "HgN/A
3:25 PM61 °FClear.22 mph42%29.98 "HgN/A
2:55 PM61 °FClear.23 mph42%29.98 "HgN/A
2:25 PM61 °FClear.23 mph45%30.01 "HgN/A
1:55 PM59 °FClear.25 mph48%30.04 "HgN/A
1:25 PM59 °FClear.22 mph45%30.04 "HgN/A
12:55 PM59 °FClear.21 mph51%30.07 "HgN/A
12:25 PM59 °FClear.21 mph48%30.09 "HgN/A
11:55 AM55 °FClear.21 mph51%30.09 "HgN/A
11:25 AM54 °FClear.16 mph58%30.09 "HgN/A
10:55 AM52 °FClear.20 mph58%30.12 "HgN/A
10:25 AM52 °FClear.16 mph58%30.12 "HgN/A
9:55 AM50 °FClear.14 mph67%30.15 "HgN/A
9:25 AM48 °FClear.16 mph62%30.15 "HgN/A
8:55 AM48 °FClear.14 mph62%30.15 "HgN/A
8:25 AM46 °FClear.13 mph66%30.15 "HgN/A
7:55 AM45 °FClear.13 mph71%30.15 "HgN/A
7:25 AM43 °FQuite cool.12 mph71%30.18 "HgN/A
6:55 AM43 °FQuite cool.10 mph71%30.18 "HgN/A
6:25 AM43 °FClear.9 mph71%30.18 "HgN/A
5:55 AM43 °FClear.10 mph71%30.18 "HgN/A
5:25 AM45 °FClear.9 mph66%30.21 "HgN/A
4:55 AM43 °FClear.8 mph71%30.21 "HgN/A
4:25 AM41 °FClear.7 mph76%30.21 "HgN/A
3:55 AM41 °FClear.6 mph76%30.24 "HgN/A
3:25 AM43 °FClear.8 mph66%30.24 "HgN/A
Weather by CustomWeather, © 2014

See weather overview